Погода Свободный

Погода Свободный : погода сейчас, прогноз погоды и архив. Всё, что Вы хотите узнать о погоде Свободный!

Хотите узнать прогноз погоды Свободный? Тогда Вам сюда: Погода Свободный

Поиск расширенной информации на нашем сайте:

Другие новости

Новости СМИ2

Главная страница сайта

Новости сайта

03.07.2017

Напоминаем, что на нашем специализированном сайте Метеоцентр.Азия вы можете получить высокодетализированные автоматические прогнозы погоды по пунктам России, СНГ и мира в авиационном формате (включающие направление и скорость ветра, видимость, явления погоды, количество и форму облачности, нижнюю и верхнюю границу облачности).

Рекомендуем: калькулятор стоимости пластиковых окон спб

Погода Свободный - сегодня

Время (UTC), дата Ветер
(°,м/с) 
Видим.   Явления Облачность Т
(°С)
Тd
(°С)
f(%) Тe
(°С)
Pmin
(гПа)
dP
(гПа)
Po
(мм)
O2
(г/м3)
Тmin Tmax R s Состояние
почвы
18 15.10.17 тихо ()   50000 м    3/0 верхняя 
[Ci fib]
-9.7 -11.4 87 -10  1025.9  -0.9  750  314           
21 15.10.17 110 (В) 50000 м    8/0 средняя, верхняя 
[Ac trans|Ci sp]
-7.6 -9.2 88 -7  1024.2  -1.4  749  311           
00 16.10.17 130 (ЮВ) 20000 м    10/0 средняя 
[Ac und]
-4 -6.8 81 -4  1023.4  -0.5  748  307  -10.4        замёрзшая 
03 16.10.17 120 (ЮВ) 20000 м    10/0 средняя, верхняя 
[Ac trans|Ci fib]
+0 -5.2 68 +1  1021.9  -0.5  748  302           
06 16.10.17 340 (С) 20000 м    10/4 1000 м кучево-дожд., средняя 
[Cb calv|Ac und]
+3.2 -6.5 49 +4  1020.5  -1  747  298           
09 16.10.17 300 (СЗ) 50000 м    10/0 кучево-дожд., средняя 
[Cb calv|Ac und]
-0.8 -2.7 87 -2  1021.7  0.8  747  302           
12 16.10.17 360 (С) 6000 м  слаб. снег  10/0 средняя 
[As op]
-0.7 -1.8 92 1023  1.3  748  302    +3.2  0.4     
15 16.10.17 320 (СЗ) 50000 м  {снег}  10/0 верхняя 
[Ci fib]
-1.8 -4.6 81 -4  1024.7  1.5  749  305           
18 16.10.17 290 (З) 50000 м  {снег}  10/0 верхняя 
[Ci fib]
-6.2 -10.4 72 -9  1027.5  2.3  751  311           
21 16.10.17 290 (З) 50000 м    ясно 
-7.2 -12.2 67 -11  1029.2  1.6  752  313           
00 17.10.17 300 (СЗ) 20000 м    ясно 
-4 -12.4 52 -8  1030.6  1.6  754  309  -7.7    0.4  равномерный
мокрый или
старый снег
100% 
03 17.10.17 300 (СЗ) 6-10{13}  20000 м    ясно 
+0.8 -13.4 34 -3  1030.1  754  304           
06 17.10.17 300 (СЗ) 6{11}  20000 м    ясно 
+2.1 -14.6 28 -1  1028.9  -1  753  302           
09 17.10.17 270 (З) 2{11}  50000 м    ясно 
-2.7 -14.1 41 -4  1029.6  0.2  753  308           
12 17.10.17 тихо ()   50000 м    ясно 
-7.1 -12.8 64 -7  1029.7  -0.3  753  313    +2.2       
15 17.10.17 тихо ()   50000 м    ясно 
-9.9 -13.1 77 -10  1030.1  0.1  753  316           
18 17.10.17 тихо ()   50000 м    ясно 
-11.6 -13.8 84 -12  1029.4  -0.9  752  318           
21 17.10.17 тихо ()   50000 м    10/0 верхняя 
[Ci sp]
-8 -10.3 83 -8  1027.4  -1.6  751  313           
00 18.10.17 120 (ЮВ) 20000 м    10/8 1000 м верхняя 
[Sc|Ci sp]
-3.8 -7.9 73 -3  1026.3  -0.7  750  307  -11.8        замёрзшая 
03 18.10.17 140 (ЮВ) 20000 м    10/0 средняя, верхняя 
[Ac trans|Ci sp]
+1.7 -6.4 55 +1  1024.2  -1.5  749  301           
06 18.10.17 140 (ЮВ) 10 км    10/0 средняя, верхняя 
[Ac trans|Ci sp]
+4.3 -8.2 40 +3  1021.3  -2.5  747  297           
09 18.10.17 130 (ЮВ) 30000 м    10/0 средняя, верхняя 
[Ac trans|Ci sp]
+1.4 -7.4 52 +2  1021.2  -0.4  747  300           
12 18.10.17 090 (В) 35000 м    10/0 средняя 
[Ac und]
+0.1 -7.5 57 +1  1021.1  -0.2  747  302    +4.4       
15 18.10.17 100 (В) 23000 м    10/6 1000 м средняя 
[Sc|Ac und]
-0.2 -7.4 58 1020.3  -0.9  746  302           
18 18.10.17 110 (В) 21000 м    10/6 1000 м средняя 
[Sc|Ac und]
-1.7 -7 67 -1  1019.9  -0.5  746  303           
Время (UTC), дата Ветер
(°,м/с) 
Видим.   Явления Облачность Т
(°С)
Тd
(°С)
f(%) Тe
(°С)
Pmin
(гПа)
dP
(гПа)
Po
(мм)
O2
(г/м3)
Тmin Tmax R s Состояние
почвы

Для получения пояснительной информации подведите курсор к названию столбца.

ПОГОДА Свободный - архив

Всё, что Вы хотите узнать о погоде Свободный - удобно и подробно!

Выберите нужную дату (начиная с 1 января 2015* года) и нажмите кнопку "Найти".
Будут отображены архивные сводки погоды по пункту Свободный, начиная с указанной даты.


Отображать данные в формате CSV (для использования в таблицах Excel)


Внимание! Наш архив погоды предназначен исключительно для личного некоммерческого использования в познавательных целях. Если Вам необходимы официальные справки о состоянии погоды (для производственных, юридических, коммерческих и т.п. целей), обращайтесь в органы Росгидромета.

*Примечание: данная дата относится к архиву по метеостанциям СССР (Россия, СНГ, Балтия).
Архив по метеостанциям Зарубежной Европы и Азии (кроме Китая) хранится 10 дней, по другим регионам земного шара (Китай, Африка, Америка, Австралия, Океания) - 1 день.

Свободный - район местоположения метеостанции


Название, широта, долгота, высота метеостанции:
Свободный 51.4°ш. 128.1°д. 197 м над ур. моря [Российская Федерация]

Дополнительная информация

В oтличие oт бoльшинства пoгoдных сайтoв мы публикуем пoдрoбную метеoинфoрмацию в детальнoм прoфессиoнальнoм фoрмате.

Характеристики температуры и влажнoсти вoздуха измеряются на высoте 2 м в тени вдали oт зданий и деревьев.
Скoрoсть ветра измеряется на высoте 10 м (на урoвне рoста челoвека скoрoсть ветра ниже в 1.5-2 раза). Если метеoстанция нахoдится в гoрoде или в лесу, тo скoрoсть ветра занижена на 2-4 м/с пo сравнению с oткрытым местoм. Скoрoсть ветра над акватoриями крупных рек и oзёр, а также на вершинах хoлмoв на 2-5 м/с выше, чем в oбычных услoвиях.
Атмoсфернoе давление в разных тoчках местнoсти мoжет значительнo oтличаться oт давления на метеoстанции, в зависимoсти oт услoвий рельефа (при пoдъёме на 10 м давление пoнижается примернo на 1 мм рт.ст.).